Temperature
4 4 4 4 4 4 4 4 4 4 4 4 3 3 3 3 3 3 3 3 3 3 3 3 3 3 3 3 3 3 3 3 3 3 3 3 3 3 3 3 3 3 4
3 3 3 3 3 3 3 3 3 3 3 3 3 3 3 3 3 3 3 3 3 3 2 2 2 2 2 2 2 2 2 2 2 2 1 2 2 2 2 2 2 2 3
3 3 3 3 3 3 3 3 3 3 3 3 3 3 2 2 2 2 2 2 2 2 2 2 2 2 1 1 1 1 1 1 1 1 0 1 1 0 1 1 2 2 2
3 3 3 3 3 3 3 3 2 2 2 2 2 2 2 2 2 2 2 1 1 1 1 1 1 1 1 1 1 1 1 0 0 0 -0 -0 -0 -1 -0 0 1 1 1
3 2 3 3 3 2 2 2 2 2 2 2 2 1 1 1 1 1 1 1 1 1 1 1 1 1 0 0 0 0 -0 -0 -0 -1 -1 -1 -1 -1 -1 -1 -1 -0 0
2 2 2 2 2 2 2 2 1 1 1 1 1 1 1 1 1 1 1 0 0 0 -0 -0 -0 -0 -0 -0 -0 -0 -1 -1 -1 -1 -1 -2 -2 -2 -2 -2 -2 -1 -1
2 1 1 1 1 1 1 1 1 1 1 1 0 0 0 0 1 0 0 0 -0 -0 -0 -1 -1 -1 -1 -1 -1 -1 -1 -1 -2 -2 -2 -2 -2 -2 -2 -3 -3 -2 -2
1 1 1 1 1 1 1 1 1 0 0 0 0 0 -0 -0 -0 -0 -0 -0 -1 -1 -1 -1 -1 -1 -1 -1 -2 -2 -2 -2 -2 -2 -2 -3 -3 -3 -3 -3 -3 -3 -3
1 1 0 0 0 1 1 1 0 0 -0 -0 -1 -1 -1 -1 -1 -1 -1 -1 -1 -1 -1 -2 -2 -2 -2 -2 -2 -2 -2 -2 -2 -3 -3 -3 -3 -3 -3 -3 -4 -4 -4
-0 0 -0 -0 -0 -0 -0 -0 -0 -1 -1 -1 -1 -1 -1 -1 -1 -1 -1 -1 -2 -2 -2 -2 -2 -2 -3 -3 -3 -3 -3 -3 -3 -3 -3 -3 -4 -4 -4 -4 -4 -4 -4
-1 -1 -1 -1 -1 -1 -1 -1 -1 -1 -2 -2 -2 -2 -2 -2 -2 -2 -2 -2 -2 -2 -3 -3 -3 -3 -3 -3 -3 -3 -3 -4 -4 -4 -4 -4 -4 -4 -4 -4 -4 -4 -5
-1 -2 -2 -2 -2 -2 -2 -2 -2 -2 -2 -2 -2 -2 -2 -2 -2 -3 -3 -3 -3 -3 -3 -3 -3 -3 -3 -3 -4 -4 -4 -4 -4 -4 -4 -4 -5 -5 -5 -5 -5 -5 -5
-2 -2 -3 -3 -2 -2 -2 -3 -3 -3 -3 -3 -3 -3 -3 -3 -3 -3 -3 -3 -3 -4 -4 -4 -4 -4 -4 -4 -4 -4 -4 -4 -5 -5 -5 -5 -5 -5 -5 -5 -5 -5 -5
-3 -3 -3 -3 -3 -3 -3 -3 -3 -3 -3 -3 -3 -3 -4 -4 -4 -4 -4 -4 -4 -4 -4 -4 -4 -4 -4 -4 -5 -5 -5 -5 -5 -6 -6 -6 -6 -6 -6 -6 -6 -6 -6
-4 -4 -4 -4 -4 -4 -4 -4 -4 -4 -4 -4 -4 -4 -4 -4 -4 -4 -5 -5 -5 -5 -5 -5 -5 -5 -5 -5 -5 -6 -6 -6 -6 -6 -6 -6 -6 -6 -6 -6 -6 -6 -6
-4 -4 -4 -4 -4 -4 -4 -4 -4 -4 -4 -4 -4 -5 -5 -5 -5 -5 -5 -5 -5 -5 -6 -6 -6 -6 -6 -6 -6 -6 -6 -6 -6 -6 -7 -7 -7 -7 -7 -7 -7 -7 -7
-5 -5 -5 -5 -5 -5 -5 -5 -5 -5 -5 -5 -5 -5 -5 -5 -6 -6 -6 -6 -6 -6 -6 -6 -6 -6 -6 -6 -7 -7 -7 -7 -7 -7 -7 -7 -7 -7 -7 -7 -7 -7 -7
-5 -5 -5 -5 -5 -5 -5 -6 -6 -6 -6 -6 -6 -6 -6 -6 -6 -6 -7 -7 -7 -7 -7 -7 -7 -7 -7 -7 -7 -7 -8 -8 -7 -7 -7 -7 -7 -7 -7 -7 -7 -7 -7
-5 -5 -5 -6 -5 -6 -6 -6 -6 -6 -6 -6 -7 -7 -7 -7 -7 -7 -7 -7 -7 -7 -7 -8 -8 -7 -7 -7 -7 -8 -8 -8 -8 -8 -8 -8 -8 -8 -8 -8 -8 -8 -8
-6 -6 -6 -6 -6 -6 -7 -7 -7 -7 -7 -7 -7 -7 -7 -7 -7 -8 -8 -8 -8 -8 -8 -8 -8 -8 -8 -8 -8 -8 -8 -8 -8 -8 -8 -8 -8 -8 -8 -8 -8 -8 -8
-6 -6 -6 -6 -6 -7 -7 -7 -8 -8 -8 -8 -8 -8 -8 -8 -8 -8 -8 -8 -9 -9 -9 -8 -8 -8 -8 -8 -8 -8 -9 -9 -9 -8 -8 -8 -8 -8 -8 -8 -8 -8 -8
-7 -7 -7 -7 -7 -8 -8 -8 -8 -8 -8 -8 -8 -8 -8 -8 -8 -9 -9 -9 -9 -9 -9 -9 -9 -9 -9 -9 -9 -9 -9 -9 -9 -9 -9 -9 -9 -9 -8 -9 -9 -9 -9
-8 -8 -8 -8 -8 -8 -8 -8 -8 -9 -9 -9 -8 -8 -9 -9 -9 -9 -9 -9 -9 -9 -9 -9 -9 -9 -9 -9 -9 -9 -9 -9 -9 -9 -9 -9 -9 -9 -9 -9 -9 -9 -9
-9 -9 -8 -8 -8 -9 -9 -9 -9 -9 -9 -9 -9 -9 -9 -9 -9 -9 -9 -10 -9 -10 -10 -10 -10 -10 -10 -9 -9 -9 -9 -9 -9 -9 -9 -9 -9 -9 -9 -10 -10 -10 -10
-9 -9 -9 -9 -9 -9 -9 -9 -9 -10 -10 -10 -10 -10 -10 -10 -10 -10 -10 -10 -10 -10 -10 -10 -10 -10 -10 -10 -10 -10 -10 -10 -10 -10 -10 -10 -10 -10 -10 -10 -10 -10 -11
-10 -10 -9 -9 -9 -9 -9 -10 -10 -10 -10 -10 -10 -10 -10 -10 -10 -10 -10 -10 -10 -10 -10 -10 -10 -10 -10 -10 -10 -10 -10 -10 -10 -10 -10 -10 -11 -11 -11 -11 -11 -11 -11
Wind_Speed
9 9 9 9 9 9 9 9 9 8 7 5 4 4 3 3 3 3 4 4 3 3 3 3 2 2 2 2 3 2 2 2 3 2 2 1 1 1 2 2 3 4 5
9 9 9 10 10 10 10 10 9 8 7 5 5 3 4 3 3 3 3 3 3 3 2 2 2 2 1 2 2 2 1 2 2 2 2 1 1 0 1 2 2 3 4
11 11 10 10 10 10 11 9 10 9 8 6 5 4 3 3 3 2 2 2 2 2 2 1 1 1 1 1 1 1 1 1 2 2 2 2 2 3 2 2 2 3 4
10 10 11 11 11 10 10 10 9 9 8 8 7 7 5 5 4 3 2 2 2 2 1 1 1 0 0 0 1 1 1 1 2 1 2 3 2 2 2 2 2 4 4
9 10 10 10 10 10 9 9 9 9 8 8 8 7 6 4 3 4 4 3 2 2 2 1 1 1 1 1 1 2 2 2 2 2 2 3 3 3 4 5 5 4 4
8 8 8 8 8 9 9 9 9 9 9 8 8 8 7 6 5 5 4 3 2 2 2 2 2 2 2 2 2 2 3 3 3 3 3 3 3 3 4 5 6 6 5
7 8 9 9 9 9 9 9 9 9 9 8 8 8 7 7 7 6 5 4 3 2 2 2 2 2 2 3 3 3 3 4 4 4 4 4 4 4 5 5 6 7 6
5 6 8 9 9 9 9 9 9 9 8 8 8 7 7 5 5 5 5 4 4 3 3 3 3 3 3 3 4 4 4 4 5 5 5 4 4 4 5 5 6 6 6
4 5 6 7 7 8 9 9 9 8 8 8 7 7 7 6 5 5 5 4 4 3 4 4 4 4 4 4 4 4 5 4 5 5 5 5 4 4 5 5 6 6 6
3 4 4 5 5 6 6 7 7 7 6 6 6 5 6 6 5 5 5 5 5 4 4 4 4 4 5 5 5 4 5 5 5 5 5 5 4 4 5 5 6 7 7
3 3 3 3 3 4 5 5 5 5 5 5 5 5 5 5 5 5 5 5 5 5 5 5 5 5 5 5 5 5 6 6 6 5 6 6 6 5 5 6 6 6 6
2 2 3 3 3 3 4 4 4 4 4 4 4 4 4 4 4 4 4 4 5 5 5 5 5 5 5 5 6 6 6 6 6 7 7 7 6 7 6 6 6 6 6
1 2 3 3 3 3 2 3 3 4 3 4 4 4 4 4 3 3 4 4 4 5 5 5 5 5 5 6 6 7 7 7 7 7 8 8 7 7 6 6 6 6 6
1 2 2 2 2 2 2 2 2 3 3 3 3 3 3 3 3 3 4 4 4 5 5 5 6 6 6 6 6 7 7 7 7 8 8 8 8 8 8 7 7 6 6
2 2 2 2 2 2 2 1 1 2 2 3 3 3 3 3 3 3 3 4 4 5 5 5 6 6 6 6 7 7 7 8 8 8 8 8 9 10 9 7 7 6 6
3 2 2 2 2 2 1 1 1 1 2 3 3 3 3 3 3 3 3 4 4 5 5 6 6 6 6 8 10 9 7 7 8 8 8 8 8 9 10 11 10 10 9
4 3 3 2 2 2 2 2 2 1 2 2 2 2 2 3 3 3 4 4 5 5 5 6 6 7 8 10 10 10 7 7 7 8 7 7 7 9 8 9 10 11 12
4 3 3 2 2 2 2 2 1 1 2 2 2 3 3 3 3 3 4 4 4 5 5 6 6 7 7 9 10 10 8 7 8 8 8 8 9 8 9 9 9 9 9
4 3 3 3 2 2 2 2 2 2 2 3 3 3 3 3 3 4 4 4 5 5 5 6 6 7 7 9 10 9 6 7 8 8 8 9 9 11 12 9 9 9 8
3 3 2 2 2 2 2 2 2 3 3 3 3 3 3 4 4 4 4 4 4 5 5 5 6 6 7 9 10 9 5 6 7 7 8 10 10 11 11 9 8 9 8
4 3 2 2 2 2 2 2 3 4 3 3 3 3 3 4 4 4 4 4 4 4 5 5 5 6 7 8 9 9 5 6 6 6 6 7 10 11 11 10 8 9 9
4 3 2 2 2 2 2 3 4 4 3 2 3 3 3 3 3 3 4 4 4 4 4 4 5 4 5 6 7 8 8 8 6 6 6 6 10 11 11 8 8 10 9
4 3 2 2 2 2 3 4 4 3 2 2 3 3 3 3 3 4 4 4 4 4 4 4 4 4 4 5 7 8 9 9 7 6 8 9 10 9 7 7 9 8 6
4 3 3 3 3 3 3 4 3 3 3 3 3 3 3 3 3 3 3 4 4 4 4 4 4 4 4 4 4 5 5 6 6 6 7 8 8 6 6 6 5 5 5
5 4 4 4 4 4 4 3 3 3 3 3 3 3 3 3 3 3 4 5 5 6 5 4 4 4 5 6 8 6 5 5 5 5 4 4 4 4 4 4 5 5 5
5 5 4 4 5 4 4 4 3 3 3 3 3 3 3 3 3 3 3 5 6 8 8 8 7 6 7 9 9 8 8 7 6 4 4 4 4 5 5 5 5 5 5
Wind_Direction
207 194 190 185 180 178 176 173 169 167 163 165 165 161 155 139 116 100 98 91 86 81 79 74 71 55 51 42 29 21 16 21 16 359 352 350 10 38 21 18 11 11 5
197 190 188 185 186 184 182 178 177 176 177 175 173 175 164 155 134 114 107 98 91 85 76 76 67 52 46 46 33 24 11 3 9 341 315 303 254 273 326 339 341 351 350
198 191 189 188 187 186 185 182 180 179 179 173 163 154 151 150 154 151 130 110 107 99 86 85 90 71 54 42 18 7 342 325 341 350 315 288 274 312 267 296 312 331 333
200 193 189 189 190 188 184 182 181 180 179 175 177 175 178 180 179 176 167 153 144 138 132 149 142 115 55 305 291 311 304 289 295 309 318 305 297 280 287 268 284 307 312
200 196 192 190 187 184 182 181 181 182 181 182 185 186 190 188 173 169 172 171 166 171 165 192 197 208 254 275 272 273 278 272 273 284 293 284 274 268 269 284 292 291 292
197 195 191 184 182 180 179 179 181 183 184 187 190 195 194 188 181 181 182 185 188 189 187 208 220 232 245 255 262 260 260 260 263 264 265 270 267 273 273 279 289 291 291
190 188 187 185 184 182 181 181 184 186 187 190 194 200 200 196 196 193 193 195 201 209 208 220 234 250 258 257 255 253 254 253 255 255 260 261 262 273 272 272 284 288 294
190 189 189 189 188 186 185 185 187 190 190 193 196 200 200 200 206 206 204 206 213 218 219 226 238 245 250 256 248 248 251 254 254 256 258 259 262 265 266 267 280 288 286
198 192 189 190 189 187 188 189 188 191 192 195 196 199 198 200 204 209 213 218 219 221 224 232 240 243 245 249 255 249 249 253 255 257 258 258 261 263 265 263 261 267 280
198 188 184 186 187 185 184 184 186 190 190 191 193 199 199 202 204 210 215 221 223 220 226 236 242 242 243 246 252 255 251 251 254 258 259 262 263 263 263 258 259 258 261
189 182 178 173 170 172 175 176 180 181 184 187 189 191 193 197 204 211 219 225 227 226 229 234 241 243 242 244 247 252 255 250 252 254 255 259 262 265 263 259 256 256 256
172 170 168 160 156 165 177 179 179 179 182 185 186 186 187 194 206 217 226 230 233 235 237 239 241 245 245 245 246 250 251 250 251 253 254 256 258 260 261 259 259 260 259
157 157 159 165 172 175 181 185 179 180 180 182 185 187 193 199 214 228 234 237 239 241 243 243 244 247 249 250 250 250 250 250 252 252 252 254 255 258 261 261 262 263 265
218 188 182 181 183 184 185 181 189 185 181 182 189 196 207 215 222 231 238 240 242 243 247 248 250 251 252 253 254 252 250 252 256 257 255 253 254 256 260 263 263 265 268
256 232 223 219 206 193 189 187 192 189 185 191 201 210 220 226 228 233 239 244 245 248 251 252 254 254 254 251 253 253 255 259 261 260 261 259 259 262 263 263 264 266 267
273 258 249 236 217 210 206 204 209 208 196 200 213 218 223 223 230 238 243 246 248 251 252 252 253 255 254 256 259 261 261 261 260 263 263 265 264 265 267 271 272 269 265
283 274 254 238 234 228 222 226 232 231 213 213 217 217 224 228 235 245 248 250 254 256 255 257 256 258 260 261 264 265 263 260 259 260 261 263 264 269 267 271 272 270 269
289 280 265 254 249 237 231 234 230 222 218 220 227 227 231 239 243 245 248 254 257 255 258 259 260 264 266 267 267 268 262 263 260 259 259 262 265 263 269 270 270 268 268
294 283 272 255 239 230 223 216 225 226 223 229 239 242 237 241 246 247 251 258 260 259 258 260 261 266 271 268 267 271 262 261 262 260 259 259 263 265 268 270 270 272 273
311 304 295 266 245 240 222 219 232 235 239 246 253 254 247 241 245 250 255 259 258 260 263 265 265 265 269 269 269 270 260 261 263 262 260 260 261 266 268 265 269 271 277
312 309 291 266 255 243 227 234 244 252 262 261 258 256 256 250 247 248 250 251 257 262 263 264 267 266 267 271 270 268 261 259 264 266 265 264 265 269 272 273 267 269 280
317 310 295 285 275 247 231 242 253 268 274 264 261 263 263 262 249 243 249 249 249 255 261 265 272 270 271 274 274 271 270 270 267 269 271 271 275 278 278 275 274 280 283
310 301 288 288 285 259 241 249 265 274 267 259 263 269 270 263 252 244 244 247 245 248 255 261 271 279 282 279 279 280 279 275 271 270 271 276 281 285 281 277 282 284 277
308 298 285 280 283 280 270 263 269 262 251 253 262 265 266 265 260 252 244 244 244 248 252 258 267 277 281 282 282 278 279 279 275 274 274 276 279 277 277 282 283 276 271
305 292 279 276 281 286 280 277 266 248 245 253 263 266 263 262 262 260 254 252 251 251 257 259 261 267 276 280 287 288 284 283 279 283 278 272 272 271 275 278 280 278 274
303 293 283 281 285 287 284 280 266 247 241 249 256 260 262 263 265 267 275 270 268 269 270 269 271 272 275 285 287 289 290 292 290 281 265 266 267 269 273 276 278 276 273
Height
1490 1491 1493 1495 1497 1499 1501 1503 1505 1507 1509 1510 1511 1513 1515 1516 1517 1517 1518 1518 1519 1519 1519 1519 1519 1519 1519 1519 1518 1518 1517 1517 1516 1516 1515 1515 1514 1514 1514 1514 1513 1513 1513
1485 1487 1488 1490 1492 1495 1497 1499 1501 1503 1505 1507 1509 1511 1512 1513 1514 1515 1515 1516 1516 1517 1517 1517 1517 1517 1517 1517 1516 1516 1515 1514 1514 1514 1513 1513 1514 1512 1511 1511 1510 1510 1510
1480 1482 1484 1486 1488 1490 1493 1495 1498 1500 1502 1504 1506 1508 1509 1510 1511 1512 1512 1513 1514 1514 1514 1515 1515 1515 1515 1514 1514 1514 1513 1513 1513 1512 1513 1513 1512 1510 1509 1508 1508 1507 1507
1476 1478 1479 1481 1484 1486 1489 1492 1494 1496 1498 1501 1503 1504 1505 1506 1507 1508 1509 1510 1511 1511 1512 1512 1512 1512 1512 1512 1511 1511 1511 1511 1510 1510 1510 1511 1510 1510 1507 1506 1506 1505 1504
1472 1474 1475 1478 1481 1483 1486 1488 1490 1493 1495 1497 1499 1501 1502 1503 1505 1505 1506 1507 1508 1509 1509 1509 1509 1509 1509 1509 1509 1508 1508 1508 1508 1507 1507 1507 1507 1506 1506 1504 1503 1502 1501
1469 1471 1473 1476 1478 1480 1482 1485 1487 1489 1491 1493 1495 1497 1498 1500 1501 1502 1503 1504 1504 1505 1506 1506 1506 1506 1506 1506 1505 1505 1505 1505 1504 1504 1504 1504 1504 1503 1503 1501 1500 1498 1498
1466 1468 1469 1471 1474 1476 1478 1481 1483 1485 1487 1489 1491 1493 1495 1496 1497 1498 1499 1500 1501 1501 1502 1502 1503 1502 1502 1502 1502 1502 1502 1501 1501 1501 1500 1500 1500 1499 1499 1498 1497 1495 1493
1464 1465 1466 1468 1470 1473 1475 1477 1479 1481 1484 1486 1488 1489 1491 1492 1494 1495 1496 1497 1497 1498 1498 1498 1499 1499 1499 1498 1498 1498 1497 1497 1497 1497 1496 1496 1495 1495 1495 1495 1494 1491 1489
1462 1463 1464 1466 1468 1469 1471 1473 1475 1478 1480 1482 1484 1485 1487 1488 1490 1491 1492 1493 1493 1494 1494 1494 1494 1494 1494 1494 1494 1494 1493 1493 1493 1492 1492 1491 1491 1491 1490 1490 1490 1490 1486
1460 1461 1463 1464 1465 1467 1468 1470 1472 1474 1476 1478 1480 1481 1483 1484 1486 1487 1488 1488 1489 1490 1490 1490 1490 1490 1490 1490 1490 1489 1489 1489 1488 1488 1488 1487 1486 1486 1486 1486 1485 1485 1483
1459 1460 1461 1462 1463 1465 1466 1467 1469 1471 1472 1474 1476 1478 1479 1480 1481 1482 1483 1484 1485 1485 1485 1485 1485 1485 1485 1485 1485 1485 1484 1484 1484 1483 1483 1483 1482 1482 1481 1481 1480 1479 1479
1459 1459 1459 1460 1461 1462 1464 1465 1466 1467 1469 1471 1472 1474 1475 1476 1477 1478 1479 1479 1480 1480 1481 1481 1481 1481 1480 1480 1480 1480 1480 1479 1479 1479 1478 1478 1478 1477 1477 1476 1475 1474 1474
1458 1458 1458 1458 1459 1460 1461 1462 1463 1465 1466 1467 1469 1470 1471 1472 1473 1474 1474 1475 1476 1476 1476 1476 1476 1475 1475 1475 1475 1475 1475 1474 1474 1474 1473 1473 1473 1472 1472 1471 1470 1469 1469
1457 1456 1456 1456 1457 1458 1459 1460 1461 1462 1463 1464 1465 1466 1467 1468 1469 1470 1470 1471 1471 1471 1471 1471 1471 1471 1470 1470 1470 1470 1470 1469 1469 1469 1468 1468 1467 1467 1467 1466 1465 1465 1464
1455 1455 1454 1455 1455 1456 1456 1457 1458 1459 1460 1461 1461 1462 1463 1464 1464 1465 1466 1466 1466 1466 1466 1466 1466 1466 1465 1465 1465 1465 1465 1464 1464 1464 1463 1463 1463 1462 1462 1462 1461 1461 1460
1453 1453 1453 1453 1453 1453 1454 1454 1455 1456 1456 1457 1458 1459 1459 1460 1460 1461 1461 1462 1462 1462 1462 1461 1461 1461 1460 1460 1460 1460 1460 1459 1459 1459 1458 1458 1458 1457 1457 1457 1456 1456 1455
1452 1451 1450 1450 1450 1451 1451 1451 1452 1453 1453 1454 1455 1455 1456 1456 1456 1457 1457 1457 1457 1457 1457 1456 1456 1456 1456 1456 1456 1456 1455 1455 1454 1454 1454 1453 1453 1453 1452 1452 1451 1451 1450
1449 1449 1448 1448 1448 1448 1449 1449 1450 1450 1450 1451 1451 1452 1452 1452 1453 1453 1453 1453 1453 1453 1452 1452 1451 1451 1451 1451 1451 1451 1451 1450 1450 1449 1449 1449 1448 1448 1448 1447 1446 1445 1444
1447 1447 1446 1446 1446 1446 1446 1446 1447 1447 1447 1448 1448 1448 1448 1448 1449 1449 1449 1449 1448 1448 1447 1447 1446 1446 1446 1446 1446 1446 1446 1445 1445 1445 1444 1444 1443 1443 1443 1442 1441 1440 1439
1445 1445 1444 1443 1443 1443 1443 1443 1443 1444 1444 1444 1444 1445 1445 1445 1445 1445 1445 1445 1444 1444 1443 1443 1442 1442 1441 1442 1442 1442 1441 1441 1440 1440 1440 1439 1439 1438 1438 1437 1436 1435 1434
1443 1442 1441 1441 1441 1441 1440 1440 1440 1440 1441 1441 1441 1441 1441 1442 1441 1441 1441 1441 1440 1440 1439 1439 1438 1438 1438 1437 1437 1437 1437 1437 1436 1435 1435 1434 1434 1433 1433 1432 1431 1430 1429
1440 1440 1439 1438 1438 1438 1438 1437 1437 1437 1438 1438 1438 1438 1438 1438 1438 1438 1437 1437 1437 1436 1435 1435 1434 1434 1434 1433 1433 1433 1433 1433 1432 1431 1430 1429 1429 1428 1428 1427 1426 1425 1424
1438 1437 1436 1435 1435 1435 1435 1434 1434 1434 1434 1434 1434 1434 1435 1435 1434 1434 1434 1433 1433 1433 1432 1431 1431 1430 1430 1430 1429 1429 1429 1428 1428 1426 1426 1425 1424 1423 1422 1421 1420 1419 1418
1435 1434 1434 1432 1432 1432 1432 1431 1431 1431 1430 1430 1430 1431 1431 1431 1431 1431 1430 1430 1429 1429 1428 1428 1427 1427 1426 1426 1425 1425 1424 1424 1423 1422 1421 1420 1419 1418 1417 1416 1415 1414 1413
1433 1432 1430 1429 1429 1428 1428 1428 1428 1427 1427 1427 1427 1427 1427 1427 1427 1427 1427 1426 1426 1426 1425 1424 1424 1423 1422 1422 1422 1421 1421 1420 1419 1418 1416 1415 1414 1413 1412 1411 1410 1409 1408
1430 1428 1427 1426 1425 1425 1424 1424 1424 1424 1424 1423 1423 1424 1424 1424 1423 1423 1423 1423 1423 1422 1421 1421 1420 1419 1419 1418 1418 1417 1416 1415 1414 1414 1412 1411 1410 1409 1408 1407 1406 1404 1403